Regional Weather Roundup
Issued by NWS

Home | Current Version | Previous Version | Graphics & Text | Print | Product List | Glossary On
Versions: 1 2 3 4 5 6 7 8 9 10 11 12 13 14 15 16 17 18 19 20 21 22 23 24 25 26 27
000
ASUS45 KCYS 271010
RWRWY

WYOMING REGIONAL WEATHER ROUNDUP
NATIONAL WEATHER SERVICE CHEYENNE WY
400 AM MDT MON MAR 27 2017

NOTE:  "FAIR" INDICATES FEW OR NO CLOUDS BELOW 12,000 FEET
WITH NO SIGNIFICANT WEATHER AND/OR OBSTRUCTIONS TO VISIBILITY.

WYZ001-271100-
YELLOWSTONE NATIONAL PARK

CITY           SKY/WX    TMP DP  RH WIND       PRES   REMARKS
LK YELLOWSTONE   N/A     27  27 100 NE3       29.89F
W YELLOWSTONE  NOT AVBL

$$
WYZ002>013-054>058-071-098>099-271100-
NORTHERN WYOMING

CITY           SKY/WX    TMP DP  RH WIND       PRES   REMARKS
JACKSON        CLOUDY    32  32 100 SW7       29.92S WCI  26
CODY           CLOUDY    43  22  43 W9        29.83F
GREYBULL       FAIR      44  33  65 CALM      29.81S
WORLAND        CLOUDY    41  37  86 S6        29.81F
SHERIDAN       CLOUDY    42  35  76 NW9       29.82R
BUFFALO        CLOUDY    40  32  73 SE8       29.81F WCI  34
GILLETTE       FAIR      37  34  89 S9        29.83F WCI  30
HULETT         FAIR      32  28  86 SW3       29.87F
NEWCASTLE      FOG       32  32 100 CALM      29.90F VSB 1/4

$$
WYZ014>020-022>026-101>103-271100-
CENTRAL WYOMING

CITY           SKY/WX    TMP DP  RH WIND       PRES   REMARKS
BIG PINEY      CLOUDY    28  26  92 E6        29.95F WCI  22
PINEDALE       PTSUNNY   28  27  93 CALM      29.95F
DUBOIS         FAIR      30  21  69 NW8       29.87F WCI  23
LANDER         FAIR      38  21  50 NW3       29.86S
RIVERTON       FAIR      35  24  64 W12       29.86S WCI  27
CASPER         MOCLDY    39  30  70 SW10      29.84F WCI  32
DOUGLAS        FAIR      33  31  92 SE3       29.87F

$$
WYZ021-027>030-104>119-271100-
SOUTHERN WYOMING

CITY           SKY/WX    TMP DP  RH WIND       PRES   REMARKS
EVANSTON       CLOUDY    34  25  69 W7        29.92F WCI  28
KEMMERER         N/A     30  27  86 N5        29.94F WCI  25
ROCK SPRINGS   CLOUDY    37  26  64 SW6       29.95S WCI  32
DIXON            N/A     35  28  75 E8        29.98F WCI  28
RAWLINS        MOCLDY    34  22  61 SW7       29.94S WCI  28
SARATOGA       CLOUDY    32  25  74 SW7       29.96S WCI  26
LARAMIE        FAIR      28  25  88 S8        29.92F WCI  20
CHEYENNE       FAIR      32  30  92 W9        29.92F WCI  24
TORRINGTON     FAIR      27  25  92 E8        29.89F WCI  19
PINE BLUFFS    FAIR      27  27 100 CALM      29.93F

$$




USA.gov is the U.S. government's official web portal to all federal, state and local government web resources and services.